Regional Weather Roundup
Issued by NWS Green Bay, WI

Home | Current Version | Previous Version | Graphics & Text | Print | Product List | Glossary Off
Versions: 1 2 3 4 5 6 7 8 9 10 11 12 13 14 15 16 17 18 19 20 21 22 23 24 25 26 27 28 29 30 31 32 33 34 35 36 37 38 39 40 41 42 43 44 45 46 47 48 49 50

000
ASUS43 KGRB 052259
RWRGRB

NORTH-CENTRAL AND NORTHEAST WISCONSIN REGIONAL WEATHER ROUNDUP
NATIONAL WEATHER SERVICE GREEN BAY WI
600 PM CDT TUE MAY 05 2015

WIZ005-009-010>012-018-019-060000-
NORTH CENTRAL WISCONSIN

CITY           SKY/WX    TMP DP  RH WIND       PRES   REMARKS
IRONWOOD       SUNNY     72  30  21 SE9       30.13S
MANITOWISH WTR NOT AVBL
ARBOR VITAE    NOT AVBL
EAGLE RIVER    NOT AVBL
LAND O LAKES   NOT AVBL
RHINELANDER    MOSUNNY   66  25  21 SE13G21   30.23S
PHILLIPS       NOT AVBL
ANTIGO         NOT AVBL
TOMAHAWK       NOT AVBL
MERRILL        NOT AVBL
$$

WIZ013-073-060000-
NORTHEAST WISCONSIN

CITY           SKY/WX    TMP DP  RH WIND       PRES   REMARKS
IRON MOUNTAIN  SUNNY     66  27  23 SE13      30.23F
MARINETTE      PTSUNNY   61  28  29 E5        30.26F
$$

WIZ017-030-035>037-045-060000-
CENTRAL WISCONSIN

CITY           SKY/WX    TMP DP  RH WIND       PRES   REMARKS
MEDFORD        NOT AVBL
WAUSAU         CLOUDY    64  20  18 SE10      30.21S
MOSINEE        MOSUNNY   63  21  20 SE9       30.24S
MARSHFIELD     CLOUDY    63  33  32 SE13G21   30.21F
WISC RAPIDS    CLOUDY    63  34  33 E10       30.23F
STEVENS POINT  NOT AVBL
WAUPACA        NOT AVBL
SHAWANO        NOT AVBL
CLINTONVILLE   NOT AVBL
$$

WIZ038-039-048-051-060000-
FOX VALLEY

CITY           SKY/WX    TMP DP  RH WIND       PRES   REMARKS
NWS GREEN BAY  CLOUDY    64  24  21 SE7       30.25F
APPLETON       PTSUNNY   63  34  34 SE12      30.24F
OSHKOSH        CLOUDY    59  46  62 E9        30.23F
FOND DU LAC    CLOUDY    56  47  71 E9        30.25S
$$

WIZ022-050-052-060000-
EAST CENTRAL WISCONSIN

CITY           SKY/WX    TMP DP  RH WIND       PRES   REMARKS
STURGEON BAY   CLOUDY    63  27  25 E5        30.28F
MANITOWOC      NOT AVBL
SHEBOYGAN      CLOUDY    54  43  66 S3        30.25S
$$

LMZ563-521-522-541>543-060000-
LAKESHORE

STATION/POSITION TIME  TEMP    WIND        PRES    VSBY  WAVE
                       AIR SEA DIR/SP/G                  HT/PER
                 (UTC) (F)     (DEG/KT/KT) (MB)    (MI)  (FT/S)
SHEBOYGAN LKSHOR 2200   46     360/  6/  7 1025.3F
KEWAUNEE LKSHORE 2200   47      40/  7/  9 1024.0F
NORTHPORT PIER   2200   51      30/  1/  2 1024.7F
CHAMBERS ISLAND  2200   53      CALM  /  2 1025.1F
MENOMINEE LKSHOR 2200   51      10/  4/  5 1025.5F
$$



USA.gov is the U.S. government's official web portal to all federal, state and local government web resources and services.